Change the Weather History Date:

Monday, April 28, 2014

  Actual Average Record
Temperature  
Mean Temperature 60 °F -  
Max Temperature 69 °F 80 °F 95 °F (2007)
Min Temperature 50 °F 48 °F 30 °F (1970)
Degree Days  
Heating Degree Days 6    
Growing Degree Days 10 (Base 50)    
Moisture  
Dew Point 22 °F    
Average Humidity 20    
Maximum Humidity 36    
Minimum Humidity 15    
Precipitation  
Precipitation 0.00 in - - ()
Sea Level Pressure  
Sea Level Pressure 30.10 in    
Wind  
Wind Speed 12 mph (NE)    
Max Wind Speed 28 mph    
Max Gust Speed 34 mph    
Visibility 10 miles    
Events      
Averages and records for this station are not official NWS values.
T = Trace of Precipitation, MM = Missing Value Source: NWS Daily Summary

Daily Weather History Graph

Daily Weather History Graph

Search for Another Location

Airport or City:

Trip Planner

Search our weather history database for the weather conditions in past years. The results will help you decide how hot, cold, wet, or windy it might be!

Date:

Astronomy

Apr. 28, 2014 Rise Set
Actual Time 6:43 AM MDT 8:20 PM MDT
Civil Twilight 6:15 AM MDT 8:48 PM MDT
Nautical Twilight 5:42 AM MDT 9:22 PM MDT
Astronomical Twilight 5:06 AM MDT 9:57 PM MDT
Moon 6:22 AM MDT (4/28) 8:03 PM MDT (4/28)
Length of Visible Light 14h 33m
Length of Day
13h 37m
Waning Crescent, 0% of the Moon is Illuminated
Apr 28
Waning Crescent
Apr 29
New
May 6
First Quarter
May 14
Full
May 21
Last Quarter

Hourly Weather History & Observations

Time (MDT) Temp. Dew Point Humidity Pressure Visibility Wind Dir Wind Speed Gust Speed Precip Events Conditions
12:15 AM - - N/A% - - North - - N/A   Unknown
12:35 AM - - N/A% - - North - - N/A   Unknown
12:55 AM - - N/A% - - North - - N/A   Unknown
1:15 AM - - N/A% - - North - - N/A   Unknown
1:35 AM - - N/A% - - North - - N/A   Unknown
2:15 AM - - N/A% - - North - - N/A   Unknown
2:35 AM - - N/A% - - North - - N/A   Unknown
2:55 AM - - N/A% - - North - - N/A   Unknown
3:15 AM - - N/A% - - North - - N/A   Unknown
3:35 AM - - N/A% - - North - - N/A   Unknown
3:55 AM - - N/A% - - North - - N/A   Unknown
4:15 AM - - N/A% - - North - - N/A   Unknown
4:35 AM - - N/A% - - North - - N/A   Unknown
4:55 AM - - N/A% - - North - - N/A   Unknown
5:15 AM - - N/A% - - North - - N/A   Unknown
5:35 AM - - N/A% - - North - - N/A   Unknown
5:45 AM 50.0 °F - N/A% 29.95 in 10.0 mi SE 9.2 mph - N/A   Partly Cloudy
5:55 AM - - N/A% - - North - - N/A   Unknown
6:15 AM - - N/A% - - North - - N/A   Unknown
6:35 AM - - N/A% - - North - - N/A   Unknown
6:55 AM - - N/A% - - North - - N/A   Unknown
7:15 AM - - N/A% - - North - - N/A   Unknown
7:35 AM - - N/A% - - North - - N/A   Unknown
7:55 AM - - N/A% - - North - - N/A   Unknown
8:15 AM - - N/A% - - North - - N/A   Unknown
8:55 AM - - N/A% 30.06 in - East 4.6 mph - N/A   Unknown
9:15 AM 57.2 °F 30.2 °F 36% 30.08 in 10.0 mi NNE 10.4 mph 16.1 mph N/A   Clear
9:35 AM 59.0 °F 30.2 °F 34% 30.08 in 10.0 mi ENE 12.7 mph - N/A   Clear
9:55 AM 59.0 °F 30.2 °F 34% 30.08 in 10.0 mi NE 17.3 mph 23.0 mph N/A   Clear
10:15 AM 60.8 °F 30.2 °F 31% 30.09 in 10.0 mi NE 19.6 mph - N/A   Clear
10:35 AM 60.8 °F 28.4 °F 29% 30.10 in 10.0 mi NE 11.5 mph 18.4 mph N/A   Clear
10:55 AM 62.6 °F 28.4 °F 27% 30.10 in 10.0 mi ENE 18.4 mph 23.0 mph N/A   Partly Cloudy
11:15 AM 62.6 °F 28.4 °F 27% 30.10 in 10.0 mi East 10.4 mph - N/A   Partly Cloudy
11:35 AM 62.6 °F 28.4 °F 27% 30.11 in 10.0 mi NNW 6.9 mph 16.1 mph N/A   Clear
11:55 AM 62.6 °F 26.6 °F 26% 30.11 in 10.0 mi NNE 16.1 mph 24.2 mph N/A   Clear
12:15 PM 62.6 °F 26.6 °F 26% 30.11 in 10.0 mi ENE 13.8 mph 18.4 mph N/A   Clear
12:35 PM 64.4 °F 24.8 °F 22% 30.11 in 10.0 mi NE 10.4 mph - N/A   Clear
12:55 PM 66.2 °F 26.6 °F 23% 30.11 in 10.0 mi NNE 10.4 mph - N/A   Clear
1:15 PM 66.2 °F 24.8 °F 21% 30.10 in 10.0 mi East 6.9 mph 17.3 mph N/A   Clear
1:55 PM 64.4 °F 24.8 °F 22% 30.10 in 10.0 mi ENE 8.1 mph - N/A   Clear
2:15 PM 66.2 °F 24.8 °F 21% 30.09 in 10.0 mi ESE 9.2 mph - N/A   Clear
2:35 PM 68.0 °F 23.0 °F 18% 30.09 in 10.0 mi NW 13.8 mph 19.6 mph N/A   Clear
3:15 PM 69.8 °F 21.2 °F 16% 30.08 in 10.0 mi North 11.5 mph 21.9 mph N/A   Clear
3:35 PM 69.8 °F 23.0 °F 17% 30.09 in 10.0 mi North 13.8 mph 21.9 mph N/A   Clear
3:55 PM 68.0 °F 21.2 °F 17% 30.08 in 10.0 mi SW 4.6 mph - N/A   Clear
4:15 PM 69.8 °F 21.2 °F 16% 30.08 in 10.0 mi NE 5.8 mph - N/A   Clear
4:35 PM 69.8 °F 21.2 °F 16% 30.07 in 10.0 mi NE 5.8 mph 18.4 mph N/A   Clear
4:55 PM 69.8 °F 21.2 °F 16% 30.07 in 10.0 mi ENE 5.8 mph - N/A   Clear
5:15 PM 69.8 °F 21.2 °F 16% 30.06 in 10.0 mi NW 9.2 mph - N/A   Clear
5:35 PM 69.8 °F 19.4 °F 15% 30.06 in 10.0 mi North 8.1 mph 21.9 mph N/A   Clear
5:55 PM 68.0 °F 19.4 °F 16% 30.06 in 10.0 mi NNE 3.5 mph - N/A   Partly Cloudy
6:15 PM 69.8 °F 21.2 °F 16% 30.06 in 10.0 mi ENE 6.9 mph - N/A   Scattered Clouds
6:35 PM 69.8 °F 21.2 °F 16% 30.07 in 10.0 mi ESE 11.5 mph - N/A   Clear
6:55 PM 69.8 °F 21.2 °F 16% 30.07 in 10.0 mi East 10.4 mph - N/A   Clear
7:15 PM 69.8 °F 19.4 °F 15% 30.07 in 10.0 mi ENE 13.8 mph - N/A   Clear
7:35 PM 68.0 °F 19.4 °F 16% 30.08 in 10.0 mi ENE 19.6 mph - N/A   Clear
7:55 PM 66.2 °F 19.4 °F 17% 30.09 in 10.0 mi NE 16.1 mph 19.6 mph N/A   Clear
8:15 PM 64.4 °F 17.6 °F 16% 30.09 in 10.0 mi NE 13.8 mph - N/A   Clear
8:35 PM 64.4 °F 17.6 °F 16% 30.10 in 10.0 mi NE 13.8 mph 19.6 mph N/A   Clear
8:55 PM 62.6 °F 17.6 °F 18% 30.12 in 10.0 mi NE 21.9 mph 25.3 mph N/A   Clear
9:15 PM 62.6 °F 17.6 °F 18% 30.13 in 10.0 mi NE 18.4 mph 32.2 mph N/A   Clear
9:35 PM 62.6 °F 15.8 °F 16% 30.15 in 10.0 mi NE 21.9 mph 29.9 mph N/A   Clear
9:55 PM 62.6 °F 15.8 °F 16% 30.16 in 10.0 mi NE 26.5 mph 32.2 mph N/A   Clear
10:15 PM 60.8 °F 15.8 °F 17% 30.17 in 10.0 mi NE 21.9 mph 32.2 mph N/A   Clear
10:35 PM 60.8 °F 15.8 °F 17% 30.19 in 10.0 mi NE 27.6 mph 31.1 mph N/A   Clear
10:55 PM 60.8 °F 15.8 °F 17% 30.20 in 10.0 mi NE 26.5 mph 34.5 mph N/A   Clear
11:15 PM 60.8 °F 15.8 °F 17% 30.20 in 10.0 mi NE 23.0 mph 31.1 mph N/A   Clear
11:35 PM 60.8 °F 15.8 °F 17% 30.22 in 10.0 mi NE 21.9 mph 28.8 mph N/A   Clear
11:55 PM 59.0 °F 15.8 °F 19% 30.23 in 10.0 mi NE 20.7 mph 34.5 mph N/A   Clear